Showing default

COSMOS 2246, 22647

Orbit data source: Space-Track

COSMOS 2246, 22647 is a payload satellite owned by VKS (CIS) in LEO that was launched on Tue, 11 May 1993 UTC via a TSIKLON-3 launch vehicle from the Plesetsk Missile And Space Complex (PKMTR). Payload-class satellites include a variety of spacecraft equipped with specific instruments for various scientific and technological missions. These include communications satellites like Starlink; space stations such as the ISS; scientific satellites like the Hubble; Earth observation satellites from companies like Planet Labs, Umbra, and HawkEye 360; GPS; miniature CubeSats for education and research; and military/defense satellites.

Loading next visibility...
Identifier
22647, 1993-030B
Orbit
LEO
Last TLE update
16 hours ago
Origin
Manufacturer
NPO PM
Mission
Defense Communications
Bus & Motor
STRELA-3, Unknown motor
Mass
225 kg wet, 225 kg dry
Launch date (UTC)
1993-05-11 (32 years ago)
Launch vehicle
TSIKLON-3
Launch site
Plesetsk Missile And Space Complex (PKMTR)
Object type
Payload
Rocket body
Debris
Shape & HBR
Cyl, 1.6 m
Radar Cross Section
1.257 m², Medium (>0.1 m² and < 1m²)

Expand to show TLE details & history

TLE from 16 hours ago
0 COSMOS 2246
1 22647U 93030B   25181.68719319  .00000012  00000-0  81354-5 0  9996
2 22647  82.5845 181.4333 0009915   0.8867 359.2240 12.63625025482136
Epoch: 2025-06-30T16:29Z
TLE epoch observation values (Epoch: 2025-06-30T16:29:33.491Z)
Latitude
-0.0001°
Longitude
15.05032°
Altitude
1,403.029 km
Speed
7.162 km/s
True Right ascension
12h 05m 43s
True Declination
0° 00' 00"
Sunlit
Object was in daylight at epoch
Visualization orbit readout
Latitude
-53.5677°
Longitude
-155.28198°
Altitude
1,433.205 km
Speed
7.142 km/s
Apparent Right ascension
04h 49m 07s
Apparent Declination
-64° 20' 15"
Sunlit
Object is in daylight
Visualization observer readout
Local Sidereal Time
20:33:59
Azimuth
146.157° SSE
Elevation
-49.736°
Doppler factor
1
Orbital elements
Apogee altitude
1,413.054 km
Perigee altitude
1,397.619 km
Semi-major axis
7,783.473 km
Eccentricity
0.00099
Inclination
82.5845°
RAAN
181.4333°
Arg. of periapsis
0.8867°
True anomaly
Unknown
Mean anomaly
359.224°
Eccentric anomaly
Unknown
Mean motion
3.1607 °/min
Orbital period
113.9 mins
BSTAR
0.0000081354
Loading maneuver chart data...
Loading SW <> Apogee altitude chart data...
Loading historical data...
Loading historical data...
Loading historical data...
Loading historical data...
Loading historical data...
Loading historical data...
Loading historical data...

COSMOS 2246 Visibility forecast

Observer location: undefined°, undefined°

Span
Click to sort rows by Start time (UTC) header in descending order
Start Az.
Max El. time (UTC)
Max El. Az.
Max El.
End time (UTC)
End Az.
11 mins2025-07-01 10:12:46.929Z21.759° NNE2025-07-01 10:17:46.929Z61.714° ENE20.539°2025-07-01 10:23:46.929Z110.98° ESE
15 mins2025-07-01 12:06:46.929Z348.318° N2025-07-01 12:13:46.929Z277.906° WNW44.04°2025-07-01 12:21:46.929Z182.915° SSW
4 mins2025-07-01 14:05:46.929Z296.331° NW2025-07-01 14:07:46.929Z281.355° WNW12.185°2025-07-01 14:09:46.929Z266.788° W
9 mins2025-07-01 23:02:46.929Z113.377° SE2025-07-01 23:06:46.929Z79.233° E19.553°2025-07-01 23:11:46.929Z39.368° NE
15 mins2025-07-02 00:53:46.929Z194.386° SSW2025-07-02 01:00:46.929Z288.485° WNW44.022°2025-07-02 01:08:46.929Z4.455° NNE
6 mins2025-07-02 02:54:46.929Z282.283° WNW2025-07-02 02:56:46.929Z297.653° NW13.491°2025-07-02 03:00:46.929Z327.427° NNW
|